Regional Weather Roundup
Issued by NWS

Home | Current Version | Previous Version | Graphics & Text | Print | Product List | Glossary On
Versions: 1 2 3 4 5 6 7 8 9 10 11 12 13 14 15 16 17 18 19 20 21 22 23 24 25 26 27
000
ASUS45 KBOU 231206
RWRCO

WEATHER ROUNDUP FOR COLORADO
NATIONAL WEATHER SERVICE DENVER/BOULDER CO
600 AM MDT WED APR 23 2014

NOTE: "FAIR" INDICATES FEW OR NO CLOUDS BELOW 12000 FEET WITH NO
SIGNIFICANT WEATHER AND/OR OBSTRUCTIONS TO VISIBILITY.

COZ001>005-013-030-031-231300-
...NORTHWEST COLORADO...

CITY           SKY/WX    TMP DP  RH WIND       PRES   REMARKS
CRAIG          CLOUDY    36  34  92 S6        29.84R
HAYDEN         CLOUDY    32  30  93 SW7       29.85R VSB 3/4 WCI  26
MEEKER         CLOUDY    40  35  83 E3        29.82R
MOUNT WERNER   CLOUDY    32  28  86 W15G23    29.87R VSB 1/2 WCI  22
STEAMBOAT SPGS CLOUDY    38  36  92 SW5       29.82R
WALDEN         CLOUDY    34  30  86 NW8       29.79R WCI  27
$$

COZ006>008-011-231300-
...WEST CENTRAL VALLEYS...

CITY           SKY/WX    TMP DP  RH WIND       PRES   REMARKS
GRAND JUNCTION CLOUDY    52  24  33 N9        29.75R
MONTROSE       PTCLDY    58  21  24 S16G24    29.77F
EAGLE          MOCLDY    52  32  46 W20G40    29.77R
RIFLE          CLOUDY    49  30  48 NW17G26   29.77R
DELTA          NOT AVBL
NUCLA          NOT AVBL
$$

COZ017>023-064>068-231300-
...SOUTHWEST COLORADO...

CITY           SKY/WX    TMP DP  RH WIND       PRES   REMARKS
DURANGO        PTCLDY    50  25  37 W12       29.86R
CORTEZ         MOCLDY    52  25  35 S10       29.82F
PAGOSA SPRINGS PTCLDY    49  22  35 SW6       29.89S
TELLURIDE      CLOUDY    43  27  52 SW8G18    29.92F
WOLF CREEK PAS CLOUDY    30  23  74 SW25G41   30.02S WCI  16
$$

COZ009-010-012-014-032>034-037-058>063-231300-
...CENTRAL COLORADO...

CITY           SKY/WX    TMP DP  RH WIND       PRES   REMARKS
ASPEN          CLOUDY    46  31  55 SE9       29.78F
BUENA VISTA    MOCLDY    44  25  47 E6        29.79R
COPPER MTN     LGT SNOW  32  27  80 SW18G36   29.93S WCI  20
BERTHOUD PASS  MOCLDY    28  19  69 W33G43    29.90F WCI  12
COTTONWOOD PAS MOCLDY    45  19  36 W9G23     29.85S
GUNNISON       PTCLDY    43  28  56 S18G32    29.85S
KREMMLING      MOCLDY    46  32  57 W13G18    29.77R
LEADVILLE      LGT SNOW  33  27  78 W8        29.86R WCI  26
MONARCH PASS   PTCLDY    32  18  55 W30G54    30.03R WCI  18
SALIDA         MOCLDY    47  26  44 CALM      29.85S
SUNLIGHT       CLOUDY    34  30  86 SW3       29.90S
WILKERSON PASS PTCLDY    32  21  64 SW12G23   29.89R WCI  23
$$

COZ069>075-231300-
...SAN LUIS VALLEY/SANGRE DE CRISTO MOUNTAINS...

CITY           SKY/WX    TMP DP  RH WIND       PRES   REMARKS
ALAMOSA        PTCLDY    49  23  36 SW17G25   29.82F
LA VETA PASS   PTCLDY    39  23  52 SW22G39   29.87F
SAGUACHE       PTCLDY    39  25  56 E3        29.81S
$$

COZ035-036-038>040-231300-
...NORTHERN COLORADO FRONT RANGE...

CITY           SKY/WX    TMP DP  RH WIND       PRES   REMARKS
DENVER INTL AP MOCLDY    54  29  38 S16       29.58S
DMNS CITY PARK   N/A     56  29  35 S6        29.58S
AURORA         MOCLDY    55  28  35 S15       29.60F
FRONT RANGE AP NOT AVBL
ERIE MUNI ARPT CLEAR     52  33  49 SW8       29.56S
BOULDER MUN AP CLEAR     50  32  50 W3        29.57R
CENTENNIAL     PTCLDY    55  27  34 SE10      29.62S
BROOMFIELD     CLEAR     52  32  46 S6        29.60R
FORT COLLINS   PTCLDY    46  37  71 NE3       29.58R
LONGMONT       NOT AVBL
$$

COZ041-046-047-076>085-087-088-231300-
...PIKES PEAK/PALMER DIVIDE AND SOUTHERN FOOTHILLS...

CITY           SKY/WX    TMP DP  RH WIND       PRES   REMARKS
COLO. SPRINGS  PTCLDY    55  28  35 S21       29.68F
A. F. ACADEMY  PTCLDY    53  26  35 SE6       29.68F
ELLICOTT       NOT AVBL
FALCON         PTCLDY    54  25  33 S23G29    29.71F
FORT CARSON    PTCLDY    53  29  39 S21       29.66S
LIMON          MOCLDY    54  34  46 S18       29.65F
MONUMENT HILL  PTCLDY    54  19  26 SW18G26   29.69S
TRINIDAD       PTCLDY    56  39  53 SE9       29.74F
$$

COZ042>045-048>051-090-091-231300-
...NORTHEAST COLORADO...

CITY           SKY/WX    TMP DP  RH WIND       PRES   REMARKS
GREELEY ARPT   PTCLDY    41  32  70 NW6       29.56R
AKRON          CLOUDY    59  36  42 SW17      29.56S
BURLINGTON     CLOUDY    61  41  47 S28G36    29.64S
WRAY           CLOUDY    62  42  47 S18G26    29.54F
STERLING       NOT AVBL
HOLYOKE        NOT AVBL
FORT MORGAN    NOT AVBL
$$

COZ086-089-092>099-231300-
...SOUTHEAST COLORADO...

CITY           SKY/WX    TMP DP  RH WIND       PRES   REMARKS
PUEBLO         MOCLDY    55  37  50 SE5       29.64F
LA JUNTA       MOCLDY    65  42  43 S20       29.65F
LAMAR          CLOUDY    62  42  47 S16       29.64F
SPRINGFIELD      N/A     58  39  49 S20G29    29.74F
$$



USA.gov is the U.S. government's official web portal to all federal, state and local government web resources and services.